FW3769 Weather Reports


Display with metric or nautical units.
time (UTC)temp
F
wind
direction
speed
MPH
gust
MPH
rain 1hr
in
rain 24hr
in
rain mn
in
humidity
%
barometer
mb
20260906213655 85 198 0.0 0.0 0.00 0.00 0.00 35 1024.1
20260906213150 85 210 0.0 0.0 0.00 0.00 0.00 34 1024.1
20260906212647 84 216 0.0 0.0 0.00 0.00 0.00 35 1023.7
20260906212144 84 252 0.0 0.0 0.00 0.00 0.00 36 1023.7
20260906211643 84 138 0.0 0.0 0.00 0.00 0.00 37 1023.7
20260906211138 85 144 0.0 0.0 0.00 0.00 0.00 36 1023.7
20260906210634 85 240 0.0 0.0 0.00 0.00 0.00 36 1023.7
20260906210134 84 198 0.0 0.0 0.00 0.00 0.00 36 1023.7
20260906205629 85 216 0.0 0.0 0.00 0.00 0.00 35 1024.1
20260906205126 84 186 0.0 0.0 0.00 0.00 0.00 36 1024.1
20260906204625 84 192 0.0 0.0 0.00 0.00 0.00 38 1024.1
20260906204120 84 156 0.0 0.0 0.00 0.00 0.00 38 1024.1
20260906203620 85 198 0.0 0.0 0.00 0.00 0.00 37 1024.1
20260906203114 84 300 0.0 0.0 0.00 0.00 0.00 39 1024.1
20260906202611 83 234 0.0 0.0 0.00 0.00 0.00 39 1024.1
20260906202111 84 138 0.0 0.0 0.00 0.00 0.00 38 1024.1
20260906201606 85 210 0.0 0.0 0.00 0.00 0.00 38 1024.1
20260906201105 84 210 0.0 0.0 0.00 0.00 0.00 38 1024.6
20260906200601 85 148 0.0 0.0 0.00 0.00 0.00 35 1024.6
20260906200057 84 120 0.0 0.0 0.00 0.00 0.00 37 1024.6
20260906195552 84 246 0.0 0.0 0.00 0.00 0.00 36 1024.6
20260906195048 85 162 0.0 0.0 0.00 0.00 0.00 35 1024.6
20260906194544 84 122 0.0 0.0 0.00 0.00 0.00 36 1024.6
20260906194040 85 240 0.0 0.0 0.00 0.00 0.00 34 1024.6
20260906193539 84 192 0.0 0.0 0.00 0.00 0.00 36 1024.6
20260906193035 84 180 0.0 0.0 0.00 0.00 0.00 36 1025.0
20260906192530 83 48 0.0 0.0 0.00 0.00 0.00 35 1025.0
20260906192029 82 126 0.0 0.0 0.00 0.00 0.00 36 1025.0
20260906191524 83 300 0.0 0.0 0.00 0.00 0.00 36 1025.4
20260906191023 83 167 0.0 0.0 0.00 0.00 0.00 36 1025.4
20260906190523 83 198 0.0 0.0 0.00 0.00 0.00 35 1025.4
20260906190018 83 42 0.0 0.0 0.00 0.00 0.00 36 1025.4
20260906185517 84 42 0.0 0.0 0.00 0.00 0.00 35 1025.4
20260906185016 84 330 0.0 0.0 0.00 0.00 0.00 36 1025.4
20260906184512 83 324 0.0 0.0 0.00 0.00 0.00 37 1025.8
20260906184007 82 102 0.0 0.0 0.00 0.00 0.00 37 1025.8
20260906183503 82 150 0.0 0.0 0.00 0.00 0.00 39 1025.8
20260906182958 82 168 0.0 0.0 0.00 0.00 0.00 37 1026.2
20260906182453 82 167 0.0 0.0 0.00 0.00 0.00 37 1026.2
20260906181949 82 155 0.0 0.0 0.00 0.00 0.00 37 1026.2
20260906181444 82 162 0.0 0.0 0.00 0.00 0.00 37 1026.7
20260906180940 82 174 0.0 0.0 0.00 0.00 0.00 36 1026.7
20260906180435 82 144 0.0 0.0 0.00 0.00 0.00 37 1026.7
20260906175933 81 6 0.0 0.0 0.00 0.00 0.00 37 1026.2
20260906175433 81 96 0.0 0.0 0.00 0.00 0.00 39 1026.2
20260906174931 81 144 0.0 0.0 0.00 0.00 0.00 37 1026.2
20260906174426 81 180 0.0 0.0 0.00 0.00 0.00 39 1026.7
20260906173921 81 108 0.0 0.0 0.00 0.00 0.00 38 1026.7
20260906173416 80 154 0.0 0.0 0.00 0.00 0.00 37 1026.7
20260906172915 80 180 0.0 0.0 0.00 0.00 0.00 38 1026.7
20260906172412 80 102 0.0 0.0 0.00 0.00 0.00 36 1026.7
20260906171907 80 222 0.0 0.0 0.00 0.00 0.00 37 1026.7
20260906171401 80 168 0.0 0.0 0.00 0.00 0.00 38 1027.0
20260906170857 80 138 0.0 0.0 0.00 0.00 0.00 37 1027.0
20260906170353 80 48 0.0 0.0 0.00 0.00 0.00 38 1027.0
20260906165850 80 216 0.0 0.0 0.00 0.00 0.00 38 1027.0
20260906165349 79 161 0.0 0.0 0.00 0.00 0.00 37 1027.0
20260906164844 80 180 0.0 0.0 0.00 0.00 0.00 38 1027.0
20260906164343 79 210 0.0 0.0 0.00 0.00 0.00 39 1026.7
20260906163839 78 155 0.0 0.0 0.00 0.00 0.00 39 1026.7
20260906163335 78 180 0.0 0.0 0.00 0.00 0.00 39 1026.7
20260906162832 80 198 0.0 0.0 0.00 0.00 0.00 37 1027.0
20260906162331 79 162 0.0 0.0 0.00 0.00 0.00 39 1027.0
20260906161827 80 240 0.0 0.0 0.00 0.00 0.00 37 1027.0
20260906161326 79 192 0.0 0.0 0.00 0.00 0.00 37 1027.0
20260906160825 79 204 0.0 0.0 0.00 0.00 0.00 38 1027.0
20260906160319 79 228 0.0 0.0 0.00 0.00 0.00 38 1027.0
20260906155817 79 198 0.0 0.0 0.00 0.00 0.00 37 1026.7
20260906155311 78 234 0.0 0.0 0.00 0.00 0.00 36 1026.7
20260906154807 79 276 0.0 0.0 0.00 0.00 0.00 36 1026.7
20260906154256 78 138 0.0 0.0 0.00 0.00 0.00 36 1026.7
20260906153754 79 12 0.0 0.0 0.00 0.00 0.00 36 1026.7
20260906153249 78 60 0.0 0.0 0.00 0.00 0.00 38 1026.7
20260906152744 78 348 0.0 0.0 0.00 0.00 0.00 38 1026.7
20260906152239 77 24 0.0 0.0 0.00 0.00 0.00 40 1026.7
20260906151738 77 12 0.0 0.0 0.00 0.00 0.00 38 1026.7
20260906151234 76 102 0.0 0.0 0.00 0.00 0.00 40 1026.7
20260906150729 75 330 0.0 0.0 0.00 0.00 0.00 42 1026.7
20260906150226 74 7 0.0 0.0 0.00 0.00 0.00 42 1026.7
20260906145724 73 12 0.0 0.0 0.00 0.00 0.00 45 1026.7
20260906145223 73 14 0.0 0.0 0.00 0.00 0.00 45 1026.7
20260906144719 72 348 0.0 0.0 0.00 0.00 0.00 46 1026.7
20260906144213 71 354 0.0 0.0 0.00 0.00 0.00 47 1026.7
20260906143712 70 36 0.0 0.0 0.00 0.00 0.00 47 1026.7
20260906143210 69 14 0.0 0.0 0.00 0.00 0.00 50 1026.7
20260906142709 68 36 0.0 0.0 0.00 0.00 0.00 52 1026.7
20260906142205 67 12 0.0 0.0 0.00 0.00 0.00 53 1026.7
20260906141703 67 24 0.0 0.0 0.00 0.00 0.00 53 1026.7
20260906141158 66 356 0.0 0.0 0.00 0.00 0.00 53 1026.7
20260906140657 65 24 0.0 0.0 0.00 0.00 0.00 53 1026.7
20260906140153 65 1 0.0 0.0 0.00 0.00 0.00 54 1026.7
20260906135649 65 352 0.0 0.0 0.00 0.00 0.00 55 1026.7
20260906135145 65 2 0.0 0.0 0.00 0.00 0.00 55 1026.7
20260906134641 65 0 0.0 0.0 0.00 0.00 0.00 54 1026.7
20260906134136 65 18 0.0 0.0 0.00 0.00 0.00 54 1026.2
20260906133632 64 355 0.0 0.0 0.00 0.00 0.00 55 1026.2
20260906133126 64 34 0.0 0.0 0.00 0.00 0.00 55 1026.2
20260906132621 64 24 0.0 0.0 0.00 0.00 0.00 56 1026.2
20260906132117 63 355 0.0 0.0 0.00 0.00 0.00 56 1026.2
20260906131613 62 30 0.0 0.0 0.00 0.00 0.00 57 1026.2
20260906131108 62 36 0.0 0.0 0.00 0.00 0.00 58 1026.2
20260906130602 62 18 0.0 0.0 0.00 0.00 0.00 58 1026.2
20260906130057 62 18 0.0 0.0 0.00 0.00 0.00 58 1026.7
20260906125555 61 24 0.0 0.0 0.00 0.00 0.00 60 1026.7
20260906125054 61 18 0.0 0.0 0.00 0.00 0.00 59 1026.7
20260906124550 61 36 0.0 0.0 0.00 0.00 0.00 60 1026.2
20260906124045 60 36 0.0 0.0 0.00 0.00 0.00 60 1026.2
20260906123544 61 18 0.0 0.0 0.00 0.00 0.00 62 1026.2
20260906123039 62 48 0.0 0.0 0.00 0.00 0.00 58 1026.2
20260906122538 62 36 0.0 0.0 0.00 0.00 0.00 55 1026.2
20260906122035 63 18 0.0 0.0 0.00 0.00 0.00 55 1026.2
20260906121525 63 9 0.0 0.0 0.00 0.00 0.00 54 1025.8
20260906121021 63 12 0.0 0.0 0.00 0.00 0.00 55 1025.8
20260906120521 63 356 0.0 0.0 0.00 0.00 0.00 56 1025.8
20260906120019 63 12 0.0 0.0 0.00 0.00 0.00 55 1025.8
20260906115513 63 15 0.0 0.0 0.00 0.00 0.00 55 1025.8
20260906115008 63 24 0.0 0.0 0.00 0.00 0.00 56 1025.8
20260906114502 63 348 0.0 0.0 0.00 0.00 0.00 55 1026.2
20260906113958 62 6 0.0 0.0 0.00 0.00 0.00 56 1026.2
20260906113456 62 15 0.0 0.0 0.00 0.00 0.00 57 1026.2
20260906112952 62 12 0.0 0.0 0.00 0.00 0.00 57 1025.8
20260906112447 62 8 0.0 0.0 0.00 0.00 0.00 58 1025.8
20260906111943 62 352 0.0 0.0 0.00 0.00 0.00 58 1025.8
20260906111442 62 42 0.0 0.0 0.00 0.00 0.00 57 1025.8
20260906110938 62 28 0.0 0.0 0.00 0.00 0.00 57 1025.8
20260906110433 62 24 0.0 0.0 0.00 0.00 0.00 59 1025.8
20260906105932 62 348 0.0 0.0 0.00 0.00 0.00 59 1025.4
20260906105428 61 28 0.0 0.0 0.00 0.00 0.00 61 1025.4
20260906104924 60 24 0.0 0.0 0.00 0.00 0.00 62 1025.4
20260906104422 59 12 0.0 0.0 0.00 0.00 0.00 66 1025.8
20260906103921 59 40 0.0 0.0 0.00 0.00 0.00 68 1025.8
20260906103420 59 348 0.0 0.0 0.00 0.00 0.00 68 1025.8
20260906102916 59 330 0.0 0.0 0.00 0.00 0.00 71 1025.8
20260906102415 60 30 0.0 0.0 0.00 0.00 0.00 69 1025.8
20260906101909 62 6 0.0 0.0 0.00 0.00 0.00 65 1025.8
20260906101405 62 42 0.0 0.0 0.00 0.00 0.00 62 1025.8
20260906100901 62 64 0.0 0.0 0.00 0.00 0.00 64 1025.8
20260906100400 61 9 0.0 0.0 0.00 0.00 0.00 65 1025.8
20260906095854 60 12 0.0 0.0 0.00 0.00 0.00 67 1026.2
20260906095350 59 18 0.0 0.0 0.00 0.00 0.00 73 1026.2
20260906094849 58 18 0.0 0.0 0.00 0.00 0.00 75 1026.2
20260906094345 59 12 0.0 0.0 0.00 0.00 0.00 75 1025.8
20260906093841 60 348 0.0 0.0 0.00 0.00 0.00 72 1025.8
20260906093337 61 60 0.0 0.0 0.00 0.00 0.00 70 1025.8
20260906092831 61 48 0.0 0.0 0.00 0.00 0.00 67 1025.8
20260906092331 61 6 0.0 0.0 0.00 0.00 0.00 69 1025.8
20260906091821 63 3 0.0 0.0 0.00 0.00 0.00 66 1025.8
20260906091317 64 9 0.0 0.0 0.00 0.00 0.00 63 1025.8
20260906090814 64 48 0.0 0.0 0.00 0.00 0.00 64 1025.8
20260906090312 64 336 0.0 0.0 0.00 0.00 0.00 65 1025.8
20260906085812 63 14 0.0 0.0 0.00 0.00 0.00 66 1025.8
20260906085311 63 20 0.0 0.0 0.00 0.00 0.00 67 1025.8
20260906084801 63 24 0.0 0.0 0.00 0.00 0.00 67 1025.8
20260906084300 63 356 0.0 0.0 0.00 0.00 0.00 67 1025.8
20260906083755 62 9 0.0 0.0 0.00 0.00 0.00 68 1025.8
20260906083250 61 355 0.0 0.0 0.00 0.00 0.00 70 1025.8
20260906082745 60 72 0.0 0.0 0.00 0.00 0.00 75 1025.8
20260906082240 60 48 0.0 0.0 0.00 0.00 0.00 76 1025.8
20260906081737 61 40 0.0 0.0 0.00 0.00 0.00 73 1025.8
20260906081236 63 0 0.0 0.0 0.00 0.00 0.00 70 1025.8
20260906080733 63 348 0.0 0.0 0.00 0.00 0.00 71 1025.8
20260906080229 63 36 0.0 0.0 0.00 0.00 0.00 71 1025.8
20260906075723 63 48 0.0 0.0 0.00 0.00 0.00 72 1026.2
20260906075218 63 329 0.0 0.0 0.00 0.00 0.00 72 1026.2
20260906074713 62 357 0.0 0.0 0.00 0.00 0.00 72 1026.2
20260906074212 62 24 0.0 0.0 0.00 0.00 0.00 73 1026.2
20260906073707 62 30 0.0 0.0 0.00 0.00 0.00 73 1026.2
20260906073202 62 354 0.0 0.0 0.00 0.00 0.00 73 1026.2
20260906072658 63 0 0.0 0.0 0.00 0.00 0.00 72 1026.2
20260906072154 63 6 0.0 0.0 0.00 0.00 0.00 73 1026.2
20260906071650 63 352 0.0 0.0 0.00 0.00 0.00 72 1026.2
20260906071149 64 19 0.0 0.0 0.00 0.00 0.00 71 1026.7
20260906070646 64 6 0.0 0.0 0.00 0.00 0.00 71 1026.7
20260906070141 63 352 0.0 0.0 0.00 0.00 0.00 71 1026.7
20260906065641 63 330 0.0 0.0 0.00 0.00 0.00 72 1026.7
20260906065136 63 348 0.0 0.0 0.00 0.00 0.00 72 1026.7
20260906064632 63 6 0.0 0.0 0.00 0.00 0.00 72 1026.7
20260906064127 63 54 0.0 0.0 0.00 0.00 0.00 73 1026.7
20260906063622 62 24 0.0 0.0 0.00 0.00 0.00 73 1026.7
20260906063118 62 42 0.0 0.0 0.00 0.00 0.00 74 1026.7
20260906062613 62 30 0.0 0.0 0.00 0.00 0.00 75 1026.7
20260906062112 62 344 0.0 0.0 0.00 0.00 0.00 73 1026.7
20260906061609 64 30 0.0 0.0 0.00 0.00 0.00 71 1026.7
20260906061108 63 0 0.0 0.0 0.00 0.00 0.00 72 1025.8
20260906060605 63 343 0.0 0.0 0.00 0.00 0.00 72 1025.8
20260906055557 62 357 0.0 0.0 0.00 0.00 0.00 74 1025.8
20260906055052 63 30 0.0 0.0 0.00 0.00 0.00 74 1025.8
20260906054552 63 26 0.0 0.0 0.00 0.00 0.00 73 1026.2
20260906054048 63 72 0.0 0.0 0.00 0.00 0.00 73 1026.2
20260906053544 63 2 0.0 0.0 0.00 0.00 0.00 74 1026.2
20260906053039 63 3 0.0 0.0 0.00 0.00 0.00 74 1025.8
20260906052535 64 18 0.0 0.0 0.00 0.00 0.00 73 1025.8
20260906052032 63 0 0.0 0.0 0.00 0.00 0.00 73 1025.8
20260906051527 63 54 0.0 0.0 0.00 0.00 0.00 73 1025.8
20260906051023 64 54 0.0 0.0 0.00 0.00 0.00 73 1025.8
20260906050517 65 352 0.0 0.0 0.00 0.00 0.00 71 1025.8
20260906050012 65 348 0.0 0.0 0.00 0.00 0.00 71 1026.2
20260906045510 66 356 0.0 0.0 0.00 0.00 0.00 70 1026.2
20260906045006 66 48 0.0 0.0 0.00 0.00 0.00 70 1026.2
20260906044501 66 355 0.0 0.0 0.00 0.00 0.00 69 1026.7
20260906043957 67 330 0.0 0.0 0.00 0.00 0.00 69 1026.7
20260906043453 67 301 0.0 0.0 0.00 0.00 0.00 69 1026.7
20260906042949 67 352 0.0 0.0 0.00 0.00 0.00 69 1026.2
20260906042447 67 343 0.0 0.0 0.00 0.00 0.00 69 1026.2
20260906041942 67 120 0.0 0.0 0.00 0.00 0.00 69 1026.2
20260906041438 67 86 0.0 0.0 0.00 0.00 0.00 69 1026.7
20260906040937 68 342 0.0 0.0 0.00 0.00 0.00 68 1026.7
20260906040433 68 336 0.0 0.0 0.00 0.00 0.00 68 1026.7
20260906035928 68 20 0.0 0.0 0.00 0.00 0.00 67 1026.2
20260906035428 69 36 0.0 0.0 0.00 0.00 0.00 66 1026.2
20260906034924 69 120 0.0 0.0 0.00 0.00 0.00 66 1026.2
20260906034419 69 114 0.0 0.0 0.00 0.00 0.00 66 1026.2
20260906033914 69 154 0.0 0.0 0.00 0.00 0.00 66 1026.2
20260906033409 69 244 0.0 0.0 0.00 0.00 0.00 65 1026.2
20260906032904 70 226 0.0 0.0 0.00 0.00 0.00 64 1026.2
20260906032401 71 214 0.0 0.0 0.00 0.00 0.00 63 1026.2
20260906031855 71 180 0.0 0.0 0.00 0.00 0.00 63 1026.2
20260906031350 71 180 0.0 0.0 0.00 0.00 0.00 62 1025.8
20260906030845 71 130 0.0 0.0 0.00 0.00 0.00 62 1025.8
20260906030341 71 136 0.0 0.0 0.00 0.00 0.00 62 1025.8
20260906025840 72 54 0.0 0.0 0.00 0.00 0.00 62 1025.4
20260906025329 72 65 0.0 0.0 0.00 0.00 0.00 61 1025.4
20260906024828 72 150 0.0 0.0 0.00 0.00 0.00 60 1025.4
20260906024327 72 192 0.0 0.0 0.00 0.00 0.00 60 1025.4
20260906023823 73 222 0.0 0.0 0.00 0.00 0.00 60 1025.4
20260906023318 73 216 0.0 0.0 0.00 0.00 0.00 60 1025.4
20260906022814 73 54 0.0 0.0 0.00 0.00 0.00 58 1025.4
20260906022309 74 78 0.0 0.0 0.00 0.00 0.00 56 1025.4
20260906021805 73 172 0.0 0.0 0.00 0.00 0.00 48 1025.4
20260906021304 73 48 0.0 0.0 0.00 0.00 0.00 40 1024.6
20260906020759 73 306 0.0 0.0 0.00 0.00 0.00 39 1024.6
20260906020258 74 36 0.0 0.0 0.00 0.00 0.00 38 1024.6
20260906015759 74 0 0.0 0.0 0.00 0.00 0.00 38 1025.0
20260906015257 74 30 0.0 0.0 0.00 0.00 0.00 37 1025.0
20260906014752 74 1 0.0 0.0 0.00 0.00 0.00 37 1025.0
20260906014247 75 36 0.0 0.0 0.00 0.00 0.00 36 1024.6
20260906013743 75 24 0.0 0.0 0.00 0.00 0.00 36 1024.6
20260906013243 75 36 0.0 0.0 0.00 0.00 0.00 36 1024.6
20260906012739 76 301 0.0 0.0 0.00 0.00 0.00 35 1024.6
20260906012234 77 336 0.0 0.0 0.00 0.00 0.00 35 1024.6
20260906011729 77 36 0.0 0.0 0.00 0.00 0.00 34 1024.6
20260906011229 78 348 0.0 0.0 0.00 0.00 0.00 34 1024.6
20260906010724 78 6 0.0 0.0 0.00 0.00 0.00 34 1024.6
20260906010220 78 36 0.0 0.0 0.00 0.00 0.00 34 1024.6
20260906005715 78 36 0.0 0.0 0.00 0.00 0.00 34 1025.0
20260906005215 78 6 0.0 0.0 0.00 0.00 0.00 34 1025.0
20260906004713 79 30 0.0 0.0 0.00 0.00 0.00 34 1025.0
20260906004209 79 318 0.0 0.0 0.00 0.00 0.00 34 1025.0
20260906003704 78 18 0.0 0.0 0.00 0.00 0.00 35 1025.0
20260906003200 78 12 0.0 0.0 0.00 0.00 0.00 35 1025.0
20260906002659 78 336 0.0 0.0 0.00 0.00 0.00 34 1024.6
20260906002154 78 90 0.0 0.0 0.00 0.00 0.00 34 1024.6
20260906001650 78 288 0.0 0.0 0.00 0.00 0.00 34 1024.6
20260906001149 80 348 0.0 0.0 0.00 0.00 0.00 34 1025.0
20260906000645 80 330 0.0 0.0 0.00 0.00 0.00 33 1025.0
20260906000141 80 14 0.0 0.0 0.00 0.00 0.00 33 1025.0
20260905235639 80 324 0.0 0.0 0.00 0.00 0.00 31 1025.0
20260905235135 80 300 0.0 0.0 0.00 0.00 0.00 32 1025.0
20260905234630 80 228 0.0 0.0 0.00 0.00 0.00 32 1025.0
20260905234126 80 30 0.0 0.0 0.00 0.00 0.00 31 1024.6
20260905233626 81 18 0.0 0.0 0.00 0.00 0.00 32 1024.6
20260905233120 81 348 0.0 0.0 0.00 0.00 0.00 31 1024.6
20260905232616 81 84 0.0 0.0 0.00 0.00 0.00 29 1024.6
20260905232112 82 330 0.0 0.0 0.00 0.00 0.00 30 1024.6
20260905231611 81 330 0.0 0.0 0.00 0.00 0.00 28 1024.6
20260905231108 80 48 0.0 0.0 0.00 0.00 0.00 31 1024.6
20260905230603 79 14 0.0 0.0 0.00 0.00 0.00 31 1024.6
20260905225600 80 7 0.0 0.0 0.00 0.00 0.00 32 1024.6
20260905225056 80 18 0.0 0.0 0.00 0.00 0.00 31 1024.6
20260905224555 81 12 0.0 0.0 0.00 0.00 0.00 33 1024.6
20260905224054 80 0 0.0 0.0 0.00 0.00 0.00 32 1025.0
20260905223552 78 60 0.0 0.0 0.00 0.00 0.00 34 1025.0
20260905223049 78 18 0.0 0.0 0.00 0.00 0.00 36 1025.0
20260905222548 78 348 0.0 0.0 0.00 0.00 0.00 35 1025.0
20260905222044 78 336 0.0 0.0 0.00 0.00 0.00 35 1025.0
20260905221540 78 348 0.0 0.0 0.00 0.00 0.00 34 1025.0
20260905221036 78 353 0.0 0.0 0.00 0.00 0.00 34 1025.4
20260905220531 78 66 0.0 0.0 0.00 0.00 0.00 34 1025.4
20260905220027 78 0 0.0 0.0 0.00 0.00 0.00 34 1025.4
20260905215526 79 306 0.0 0.0 0.00 0.00 0.00 34 1025.0
20260905215023 78 12 0.0 0.0 0.00 0.00 0.00 35 1025.0
20260905214519 78 48 0.0 0.0 0.00 0.00 0.00 36 1025.0